Simultaneous Nadir Overpasses (SNOs) Predictions

Prediction of SNOs between GOES-15 and METOP-C Satellite Orbit:

Table of predicted SNOs for the next 14.0 days since TLE Epoch: 2/10/2024
Index Date Time (GOES-15) GOES-15 Lat,Lon METOP-C Lat,Lon Distance(km) Time Diff (sec)
1 02/11/2024 17:20:26 -0.01, 61.50 0.06, 61.95 50.73 80
2 02/13/2024 05:39:18 0.01, 61.49 0.93, 57.38 468.66 80
3 02/14/2024 05:21:19 0.02, 61.48 -0.20, 62.37 101.67 80
4 02/15/2024 17:40:22 -0.01, 61.45 -0.82, 57.76 419.52 80
5 02/16/2024 17:17:02 -0.01, 61.44 0.26, 62.76 149.66 80
6 02/18/2024 05:35:55 0.00, 61.46 0.72, 58.19 371.47 80
7 02/19/2024 05:17:55 0.00, 61.45 -0.36, 63.19 198.26 80
8 02/20/2024 17:36:57 -0.00, 61.42 -0.63, 58.58 322.81 80
9 02/21/2024 17:13:38 -0.00, 61.42 0.46, 63.58 246.14 80
10 02/23/2024 05:32:29 0.00, 61.44 0.57, 59.02 275.79 80
